Torna al catalogo

FREGAT DEB

LostUNKNOWN
NORAD 45844·DEBRIS·🇷🇺 Russia

Lanciato Jul 18, 2011 da Baikonur Cosmodrome

Loading…

Prossimi Passaggi (prossime 24 ore)

TLE

ObsoletoSource: Space-Track

Epoca: Nov 19, 2020, 11:02 UTC

1 45844U 11037CE  20324.45972368  .00041024  00000-0  33475+0 0  9994
2 45844  51.5464  91.8843 2004029 246.1906  91.6659  9.79300372 17093

Traccia FREGAT DEB in tempo reale con AllMySat

Download on the App Store